STARLINK-1494, 45760

Orbit data source: Space-Track

STARLINK-1494, 45760 is a payload satellite owned by SpaceX/Seattle (US) in LEO that was launched on Sat, 13 Jun 2020 UTC via an FALCON 9 launch vehicle from the Air Force Eastern Test Range (AFETR). Payload-class satellites include a variety of spacecraft equipped with specific instruments for various scientific and technological missions. These include communications satellites like Starlink; space stations such as the ISS; scientific satellites like the Hubble; Earth observation satellites from companies like Planet Labs, Umbra, and HawkEye 360; GPS; miniature CubeSats for education and research; and military/defense satellites.

Loading next visibility...
Identifier
45760, 2020-038AG
Orbit
LEO
Last TLE update
8 hours ago
Origin
Manufacturer
SpaceX/Seattle
Mission
Operational Commercial Communications
Bus & Motor
STARLINK, Unknown motor
Mass
260 kg wet, ~248 kg dry
Launch date (UTC)
2020-06-13 (5 years ago)
Launch vehicle
FALCON 9
Launch site
Air Force Eastern Test Range (AFETR)
Object type
Payload
Rocket body
Debris
Shape & HBR
Box + 1 Pan, 8.86 m
Radar Cross Section
13.562 m², Large (>1 m²)

Expand to show TLE details & history

TLE from 8 hours ago
0 STARLINK-1494
1 45760U 20038AG  25183.92819776 -.00000253  00000-0  18814-5 0  9991
2 45760  53.0557 257.8425 0001321  90.3313 269.7827 15.06393862278830
Epoch: 2025-07-02T22:16Z
TLE epoch observation values (Epoch: 2025-07-02T22:16:36.286Z)
Latitude
-0.00005°
Longitude
2.489°
Altitude
548.113 km
Speed
7.589 km/s
True Right ascension
17h 11m 22s
True Declination
0° 00' 00"
Sunlit
Object was in full shadow at epoch
Visualization orbit readout
Latitude
43.1846°
Longitude
45.53524°
Altitude
550.735 km
Speed
7.592 km/s
Apparent Right ascension
00h 54m 09s
Apparent Declination
15° 33' 03"
Sunlit
Object is in daylight
Visualization observer readout
Local Sidereal Time
18:15:31
Azimuth
71.961° E
Elevation
2.757°
Doppler factor
1
Orbital elements
Apogee altitude
548.416 km
Perigee altitude
546.586 km
Semi-major axis
6,925.638 km
Eccentricity
0.00013
Inclination
53.0557°
RAAN
257.8425°
Arg. of periapsis
90.3313°
True anomaly
Unknown
Mean anomaly
269.7827°
Eccentric anomaly
Unknown
Mean motion
3.76577 °/min
Orbital period
95.6 mins
BSTAR
0.0000018814
Loading maneuver chart data...
Loading SW <> Apogee altitude chart data...

STARLINK-1494 Visibility forecast

Observer location: undefined°, undefined°

Span
Click to sort rows by Start time (UTC) header in descending order
Start Az.
Max El. time (UTC)
Max El. Az.
Max El.
End time (UTC)
End Az.
7 mins2025-07-03 08:00:50.552Z236.401° WSW2025-07-03 08:04:50.552Z13.571° NNE42.267°2025-07-03 08:07:50.552Z46.348° ENE
4 mins2025-07-03 09:42:50.552Z310.359° NW2025-07-03 09:44:50.552Z347.754° N18.047°2025-07-03 09:46:50.552Z20.619° NNE
5 mins2025-07-03 13:03:50.552Z341.247° N2025-07-03 13:05:50.552Z18.495° NNE21.365°2025-07-03 13:08:50.552Z72.604° E
6 mins2025-07-03 14:43:50.552Z303.072° NW2025-07-03 14:45:50.552Z239.896° WSW44.005°2025-07-03 14:49:50.552Z137.087° SSE
4 mins2025-07-04 06:17:50.552Z149.43° SSE2025-07-04 06:18:50.552Z129.468° SE19.128°2025-07-04 06:21:50.552Z80.917° E
|